User: anonymous   Login
Location: Unspecified
(0.0000°N, 0.0000°E)
Time: 08:44:48
(UTC+00:00)
Language:

XCUBESAT - Orbit

View from above orbital plane
View from above orbital plane
View from above satellite
View from above satellite

Ground track
Ground track

The orbit data is extracted from the following two-line orbital elements,

1 42707U 98067LQ  18267.82085445 +.00066971 +00000-0 +37514-3 0  9992
2 42707 051.6313 202.1811 0002097 141.0835 219.0317 15.78682298077627
Epoch (UTC): 24 September 2018 19:42:01
Eccentricity: 0.0002097
inclination: 51.6313°
perigee height: 333 km
apogee height: 335 km
right ascension of ascending node: 202.1811°
argument of perigee: 141.0835°
revolutions per day: 15.78682298
mean anomaly at epoch: 219.0317°
orbit number at epoch: 7762

The dashed part of the orbit path shows where the satellite is in the earth's shadow,  

DLR